Simultaneous Nadir Overpasses (SNOs) Predictions

Prediction of SNOs between GOES-16 and METOP-C Satellite Orbit:

Table of predicted SNOs for the next 14.0 days since TLE Epoch: 12/12/2020
Index Date Time (GOES-16) GOES-16 Lat,Lon METOP-C Lat,Lon Distance(km) Time Diff (sec)
1 12/13/2020 14:46:48 -0.01, -75.15 0.87, -78.97 435.46 80
2 12/14/2020 14:28:50 -0.00, -75.15 -0.27, -73.98 133.42 80
3 12/16/2020 02:47:50 -0.00, -75.12 -0.78, -78.57 393.23 80
4 12/17/2020 02:24:32 -0.01, -75.12 0.36, -73.58 175.85 80
5 12/18/2020 14:43:24 0.01, -75.15 0.66, -78.14 340.62 80
6 12/19/2020 14:25:25 0.01, -75.16 -0.42, -73.14 229.09 80
7 12/21/2020 02:44:26 -0.01, -75.14 -0.58, -77.74 296.06 80
8 12/22/2020 02:21:06 -0.01, -75.15 0.50, -72.74 274.08 80
9 12/23/2020 14:42:39 0.01, -75.20 0.50, -77.31 240.79 80
10 12/24/2020 14:19:20 0.01, -75.21 -0.64, -72.32 329.82 80
11 12/26/2020 02:41:02 -0.01, -75.21 -0.37, -76.92 194.19 80
